User: anonymous   Login
Location: Feydey
(46.3431°N, 7.0106°E)
Time: 06:36:21
(UTC+00:00)
Language:

SPOT 1/Viking Rocket - Orbit

View from above orbital plane
View from above orbital plane
View from above satellite
View from above satellite

Ground track
Ground track

The orbit data is extracted from the following two-line orbital elements,

1 16615U 86019C   21267.45384097  .00000045  00000-0  32671-4 0  9993
2 16615  98.4197 326.5491 0012877 116.1891 254.5399 14.31861283862685
Epoch (UTC): 24 September 2021 10:53:31
Eccentricity: 0.0012877
inclination: 98.4197°
perigee height: 776 km
apogee height: 795 km
right ascension of ascending node: 326.5491°
argument of perigee: 116.1891°
revolutions per day: 14.31861283
mean anomaly at epoch: 254.5399°
orbit number at epoch: 86268

The dashed part of the orbit path shows where the satellite is in the earth's shadow,  

DLR